This demonstration page uses our WeatherBlox Daily Observations layout. Learn more.

Left ArrowRight Arrow

39.29038, -76.61219

Hourly Observations for August 25, 2015

Temp ( °F °C ) Dew Point ( °F °C ) Humidity (%) Winds ( mph kmh ) Pressure ( in mb ) Visibility ( mi km ) Precip ( " mm )
12:54 am 00:54 undefined 74 23.3 71 21.7 91 91 undefined N/A 29.85 1011 N/A 0.00 0.00
1:54 am 01:54 undefined 74 23.3 71 21.7 91 91 undefined N/A 29.86 1011 N/A 0.00 0.00
2:54 am 02:54 undefined 74 23.3 68 20 82 82 undefined N/A 29.85 1011 N/A 0.00 0.00
3:54 am 03:54 undefined 73 22.8 67 19.4 81 81 undefined N/A 29.85 1011 N/A 0.00 0.00
4:54 am 04:54 undefined 72 22.2 66 18.9 82 82 undefined N/A 29.86 1011 N/A 0.00 0.00
5:54 am 05:54 undefined 72 22.2 61 16.1 68 68 undefined N/A 29.87 1012 N/A 0.00 0.00
6:54 am 06:54 undefined 71 21.7 57 13.9 61 61 undefined N/A 29.89 1012 N/A 0.00 0.00
7:54 am 07:54 undefined 73 22.8 58 14.4 59 59 undefined N/A 29.92 1013 N/A 0.00 0.00
8:54 am 08:54 undefined 76 24.4 57 13.9 52 52 undefined N/A 29.92 1013 N/A 0.00 0.00
9:54 am 09:54 undefined 78 25.6 54 12.2 43 43 undefined N/A 29.93 1013 N/A 0.00 0.00
10:54 am 10:54 undefined 78 25.6 55 12.8 45 45 undefined N/A 29.93 1014 N/A 0.00 0.00
11:54 am 11:54 undefined 79 26.1 54 12.2 42 42 undefined N/A 29.93 1014 N/A 0.00 0.00
12:54 pm 12:54 undefined 80 26.7 52 11.1 38 38 undefined N/A 29.92 1013 N/A 0.00 0.00
1:54 pm 13:54 undefined 81 27.2 54 12.2 39 39 undefined N/A 29.90 1013 N/A 0.00 0.00
2:54 pm 14:54 undefined 83 28.3 52 11.1 34 34 undefined N/A 29.88 1012 N/A 0.00 0.00
3:54 pm 15:54 undefined 83 28.3 49 9.4 31 31 undefined N/A 29.87 1012 N/A 0.00 0.00
4:54 pm 16:54 undefined 83 28.3 50 10 32 32 undefined N/A 29.88 1012 N/A 0.00 0.00
5:54 pm 17:54 undefined 82 27.8 50 10 33 33 undefined N/A 29.89 1012 N/A 0.00 0.00
6:54 pm 18:54 undefined 81 27.2 49 9.4 33 33 undefined N/A 29.90 1012 N/A 0.00 0.00
7:54 pm 19:54 undefined 79 26.1 50 10 36 36 undefined N/A 29.91 1013 N/A 0.00 0.00
8:54 pm 20:54 undefined 78 25.6 51 10.6 39 39 undefined N/A 29.92 1013 N/A 0.00 0.00
9:54 pm 21:54 undefined 77 25 53 11.7 43 43 undefined N/A 29.93 1014 N/A 0.00 0.00
10:54 pm 22:54 undefined 76 24.4 53 11.7 45 45 undefined N/A 29.94 1014 N/A 0.00 0.00
11:54 pm 23:54 undefined 73 22.8 55 12.8 53 53 undefined N/A 29.96 1014 N/A 0.00 0.00

Powered by AerisWeather